Search your local weather  

 
Advertise Here

Hazardous Weather Conditions

No active alerts for LOS ANGELES, CALIFORNIA

Current Conditions: LOS ANGELES, CALIFORNIA

Overcast


60.0 F

Last Updated on May 15 2021, 8:51 pm PDT
Humidity: 72%
Wind Speed: SW 5.8 mph
Barometer 29.93 in
Dewpoint: 51.1 F
Visibility: 10.00 mi
Precip: --
Heat Index: NA
Wind Chill: 60 F
Current conditions at:

Santa Monica, Santa Monica Municipal Airport, CA (KSMO)

Lat: 34.01583 Lon: -118.45139

Local Radar Image active severe weather and emergency alerts image image weather storm and storm spotter reports image weather observation monitoring service image
Local
Radar
Active
Alerts
Storm Reports Weather
Monitoring

5 Day Forecast for LOS ANGELES, CALIFORNIA (90001)

Sunday

Chance of Rain
High 66 °F
Sunday
Night
Slight Chance of Rain
Low 60 °F
Monday

Slight Chance of Rain
High 70 °F
Monday
Night
Partly Cloudy

Low 58 °F
Tuesday

Partly Sunny

High 73 °F
Tuesday
Night
Overnight Fog
Low 59 °F
Wednesday

Mostly Cloudy

High 73 °F
Wednesday
Night
Overnight Fog
Low 60 °F
Thursday

Partly Sunny

High 71 °F

Sign-up For Email & Text Message Weather Alert Notification Services


Advertise Here

Observation History for LOS ANGELES, CALIFORNIA


Time Wind
(mph)
Vis
(mi)
Weather Precip (in) Temperature (F) Relative
Humidity
Wind
Chill
(F)
Heat
Index
(F)
Pressure
Air Dwpt altimeter
(in)
sea level
(mb)
8:51 pm PDT SW 5.8 10.00 Overcast -- 60.0 51.1 72% 60 NA 29.93 1013.4
7:51 pm PDT SW 5.8 10.00 Mostly Cloudy -- 61.0 51.1 70% 61 NA 29.91 1012.9
6:51 pm PDT W 8.1 10.00 Overcast -- 61.0 51.1 70% 60 NA 29.91 1012.7
5:51 pm PDT SW 12.7 10.00 Mostly Cloudy -- 62.0 52.0 70% 60 NA 29.91 1012.7
4:51 pm PDT W 8.1 G 18.4 10.00 A Few Clouds -- 63.0 52.0 68% 63 NA 29.90 1012.5
3:51 pm PDT SW 10.4 10.00 Fair -- 65.0 52.0 63% NA NA 29.91 1012.8
9:51 am PDT N 0.0 10.00 Overcast -- 64.0 48.0 56% NA NA 29.94 1013.8
8:51 am PDT SE 4.6 10.00 Overcast -- 64.0 48.9 58% NA NA 29.94 1013.8
7:51 am PDT S 5.8 10.00 Overcast -- 61.0 50.0 67% 61 NA 29.94 1013.7
6:51 am PDT N 0.0 10.00 Overcast -- 60.0 51.1 72% NA NA 29.93 1013.6
5:51 am PDT N 0.0 10.00 Overcast -- 60.0 51.1 72% NA NA 29.93 1013.3
4:51 am PDT S 3.5 10.00 Overcast -- 60.0 51.1 72% NA NA 29.92 1013.0
3:51 am PDT N 0.0 10.00 Overcast -- 60.0 51.1 72% NA NA 29.93 1013.4
2:51 am PDT SW 4.6 10.00 Overcast -- 60.0 52.0 75% 60 NA 29.94 1013.7

Regional Weather Observation

Los Angeles / USC Campus Downtown, CA (KCQT)

Overcast
62.0 F

Burbank - Bob Hope Airport, CA (KBUR)

Overcast
58.0 F

Van Nuys, Van Nuys Airport, CA (KVNY)

Overcast
60.0 F

Los Angeles, Whiteman Airport, CA (KWHP)

Mostly Cloudy
59.0 F

Los Angeles, Los Angeles International Airport, CA (KLAX)

Overcast
60.0 F

Hawthorne, Hawthorne Municipal Airport, CA (KHHR)

Overcast
61.0 F
Advertise Here

Advertise Here